sat.trackr.live / text

‹ back to catalog

STARLINK-32225

NORAD 62036 · 2024-216E

PAYLOAD ACTIVE UNKNOWN

§ Identity

Operator
Country
US
Launch date
2024-11-21
Launch site
AFETR
Launch vehicle
Mass (kg)
RCS (m²)

Purposes: comms

External: N2YO · Heavens-Above · Gunter

§ Orbital elements

Epoch: 2026-09-20T06:42:12.015936Z

Period
94.27 min
Inclination
43.0000°
Eccentricity
0.0001410
Mean motion
15.27590396 rev/d
Perigee alt
482.1 km
Apogee alt
484.0 km
Semi-major
6,861.2 km
B*
3.4283e-4
RAAN
237.5546°
Arg perigee
266.6847°
Mean anomaly
93.3844°
Rev number
10,370

§ Raw data

STARLINK-322251 62036U 24216E   26263.27930574  .00009187  00000+0  34283-3 0  99952 62036  43.0000 237.5546 0001410 266.6847  93.3844 15.27590396103702

JSON: /api/v1/satellites/62036 · /tle

For live sub-satellite position, see the globe view (requires WebGL).

§ Visibility from observer

Set your observer location to see the next 7 days of passes ≥ 10°. The values pass through the URL so the page stays shareable.

No JS? Fill the form by hand. The geolocation button needs JavaScript.